Tracking 29068 objects as of 20-Jul-2024
HD Live streaming from Space Station
objects crossing your sky now

STARLINK-30104

Track STARLINK-30104 now!
10-day predictions
STARLINK-30104 is classified as:


NORAD ID: 56300
Int'l Code: 2023-056Q
Perigee: 565.3 km
Apogee: 567.1 km
Inclination: 43.0 °
Period: 95.8 minutes
Semi major axis: 6937 km
RCS: Unknown
Launch date: April 19, 2023
Source: United States (US)
Launch site: AIR FORCE EASTERN TEST RANGE (AFETR)
Your satellite tracking list
Your tracking list is empty




NASA's NSSDC Master Catalog

Two Line Element Set (TLE):
1 56300U 23056Q   24201.75614042  .00001026  00000-0  90984-4 0  9991
2 56300  43.0011 218.9103 0001274 271.8837  88.1859 15.02535020 70143
Source of the keplerian elements: AFSPC